Weather History for Chicopee, MA

Change the Weather History Date:

Monday, May 27, 2013

  Actual Average Record
Temperature  
Mean Temperature 52 °F -  
Max Temperature 72 °F 68 °F 90 °F (2011)
Min Temperature 33 °F 49 °F 33 °F (2013)
Degree Days  
Heating Degree Days 12    
Growing Degree Days 2 (Base 50)    
Moisture  
Dew Point 37 °F    
Average Humidity 56    
Maximum Humidity 100    
Minimum Humidity 22    
Precipitation  
Precipitation 0.00 in - - ()
Sea Level Pressure  
Sea Level Pressure 30.14 in    
Wind  
Wind Speed 5 mph (WNW)    
Max Wind Speed 17 mph    
Max Gust Speed 25 mph    
Visibility 9 miles    
Events Rain    
Averages and records for this station are not official NWS values.
T = Trace of Precipitation, MM = Missing Value Source: NWS Daily Summary

Daily Weather History Graph

Daily Weather History Graph

Search for Another Location

Airport:

Trip Planner

Search our weather history database for the weather conditions in past years. The results will help you decide how hot, cold, wet, or windy it might be!

Date:

Astronomy

May. 27, 2013 Rise Set
Actual Time 5:19 AM EDT 8:16 PM EDT
Civil Twilight 4:45 AM EDT 8:49 PM EDT
Nautical Twilight 4:03 AM EDT 9:31 PM EDT
Astronomical Twilight 3:14 AM EDT 10:21 PM EDT
Moon 10:51 PM EDT (5/27) 7:53 AM EDT (5/27)
Length of Visible Light 16h 03m
Length of Day
14h 56m
Waning Gibbous, 91% of the Moon is Illuminated
May 27
Waning Gibbous
May 31
Last Quarter
Jun 8
New
Jun 16
First Quarter
Jun 23
Full

Hourly Weather History & Observations

Time (EDT) Temp. Dew Point Humidity Pressure Visibility Wind Dir Wind Speed Gust Speed Precip Events Conditions
4:56 AM 35.6 °F 35.6 °F 100% 30.14 in 10.0 mi Calm Calm - N/A   Clear
5:06 AM 35.6 °F 33.8 °F 93% 30.15 in 2.5 mi Calm Calm - N/A   Clear
5:08 AM 33.8 °F 33.8 °F 100% 30.15 in 1.8 mi Calm Calm - N/A   Clear
5:09 AM 33.8 °F 33.8 °F 100% 30.15 in 2.0 mi Calm Calm - N/A   Clear
5:10 AM 33.8 °F 32.0 °F 93% 30.15 in 2.0 mi Calm Calm - N/A   Clear
5:19 AM 33.8 °F 33.8 °F 100% 30.15 in 8.0 mi NNE 1.2 mph - N/A   Clear
5:58 AM 33.8 °F 33.8 °F 100% 30.17 in 10.0 mi Variable 1.2 mph - N/A   Clear
6:58 AM 41.0 °F 41.0 °F 100% 30.18 in 10.0 mi Calm Calm - N/A   Clear
7:58 AM 49.6 °F 43.9 °F 81% 30.19 in 10.0 mi Variable 1.2 mph - N/A   Clear
8:58 AM 57.4 °F 40.6 °F 54% 30.19 in 10.0 mi WNW 9.2 mph - N/A   Clear
9:58 AM 62.1 °F 39.2 °F 43% 30.18 in 10.0 mi West 11.5 mph - N/A   Clear
10:56 AM 64.4 °F 35.6 °F 34% 30.16 in 10.0 mi WNW 17.3 mph 24.2 mph N/A   Clear
11:58 AM 66.9 °F 34.7 °F 30% 30.17 in 10.0 mi WNW 16.1 mph 25.3 mph N/A   Clear
12:16 PM 68.0 °F 33.8 °F 28% 30.14 in 10.0 mi West 15.0 mph 24.2 mph N/A   Clear
12:28 PM 68.0 °F 33.8 °F 28% 30.14 in 10.0 mi NW 12.7 mph 23.0 mph N/A   Clear
12:31 PM 68.0 °F 35.6 °F 30% 30.13 in 10.0 mi West 15.0 mph 23.0 mph N/A   Clear
12:58 PM 68.4 °F 35.8 °F 30% 30.15 in 10.0 mi West 15.0 mph 23.0 mph N/A   Clear
1:58 PM 69.8 °F 35.4 °F 28% 30.14 in 10.0 mi NW 15.0 mph - N/A   Clear
2:51 PM 71.6 °F 35.6 °F 27% 30.10 in 10.0 mi WNW 12.7 mph 18.4 mph N/A   Clear
2:58 PM 71.2 °F 34.7 °F 26% 30.12 in 10.0 mi WNW 16.1 mph - N/A   Clear
3:58 PM 72.0 °F 33.3 °F 24% 30.11 in 10.0 mi WNW 13.8 mph 19.6 mph N/A   Clear
4:58 PM 72.3 °F 31.8 °F 22% 30.11 in 10.0 mi WNW 12.7 mph - N/A   Clear
5:58 PM 71.4 °F 32.4 °F 24% 30.11 in 10.0 mi WNW 11.5 mph - N/A   Clear
6:58 PM 69.8 °F 35.1 °F 28% 30.12 in 10.0 mi WNW 9.2 mph - N/A   Clear
7:57 PM 64.4 °F 37.4 °F 37% 30.11 in 10.0 mi NW 5.8 mph - N/A   Light Drizzle
7:58 PM 63.9 °F 37.4 °F 38% 30.13 in 10.0 mi NW 5.8 mph - N/A   Clear
8:03 PM 64.4 °F 37.4 °F 37% 30.11 in 10.0 mi NW 4.6 mph - N/A Rain Light Rain
8:06 PM 64.4 °F 37.4 °F 37% 30.11 in 10.0 mi NW 3.5 mph - N/A   Clear
8:58 PM 57.7 °F 40.3 °F 52% 30.14 in 10.0 mi Calm Calm - N/A   Clear
9:58 PM 46.8 °F 43.9 °F 90% 30.16 in 10.0 mi Calm Calm - 0.00 in   Clear
10:58 PM 45.7 °F 43.9 °F 93% 30.15 in 10.0 mi NNE 1.2 mph - N/A   Clear
11:58 PM 45.7 °F 43.2 °F 91% 30.20 in 10.0 mi Variable 2.3 mph - N/A   Clear